Regional Weather Roundup
Issued by NWS

Home | Current Version | Previous Version | Text Only | Print | Product List | Glossary On
Versions: 1 2 3 4 5 6 7 8 9 10 11 12 13 14 15 16 17 18 19 20 21 22 23 24 25 26 27 28 29 30 31 32 33 34 35 36 37 38 39 40 41 42 43 44 45 46 47 48 49 50
000
ASUS44 KOUN 242010
RWROK

WEATHER ROUNDUP FOR OKLAHOMA
NATIONAL WEATHER SERVICE NORMAN OK
300 PM CDT THU JUL 24 2014

NOTE: "FAIR" INDICATES FEW OR NO CLOUDS BELOW 12,000 FEET WITH NO
      SIGNIFICANT WEATHER AND/OR OBSTRUCTIONS TO VISIBILITY.

OKZ001>007-009>012-014-015-017-242100-
NORTHWEST OKLAHOMA AND THE PANHANDLE

CITY           SKY/WX    TMP DP  RH WIND       PRES   REMARKS
GAGE           SUNNY     99  62  29 S13G21    30.03F HX 100
ENID/WOODRING  MOSUNNY   93  75  55 SE9G16    30.01F HX 104
$$

OKZ016-021>023-033>039-044-045-242100-
SOUTHWEST OKLAHOMA

CITY           SKY/WX    TMP DP  RH WIND       PRES   REMARKS
LAWTON/REGL    MOSUNNY   95  68  41 VRB3      30.02F HX  99
LAWTON/FT SILL SUNNY     95  71  44 VRB5      30.01F HX 102
FREDERICK      SUNNY     96  69  41 E10G16    30.00F HX 102
CLINTON        SUNNY     98  65  33 S8G18     30.05F HX 101
HOBART         MOSUNNY   96  69  41 S9        30.04F HX 102
ALTUS AFB      MOSUNNY   94  72  47 S8        30.03F HX 102
$$

OKZ018>020-024>031-242100-
CENTRAL OKLAHOMA

CITY           SKY/WX    TMP DP  RH WIND       PRES   REMARKS
OKLAHOMA CITY  MOSUNNY   92  70  48 VRB5      30.04F HX  97
OKC/WILEY POST SUNNY     91  72  53 E5        30.04F HX  98
OKC/TINKER AFB SUNNY     89  72  57 SE5       30.05F HX  95
STILLWATER     SUNNY     92  70  48 S7        30.02F HX  97
GUTHRIE        MOSUNNY   91  73  55 S6        30.03F HX  99
$$

OKZ008-013-054>072-242100-
NORTHEAST OKLAHOMA

CITY           SKY/WX    TMP DP  RH WIND       PRES   REMARKS
TULSA          MOSUNNY   88  71  57 SE7       30.02F HX  94
TULSA/JONES    PTSUNNY   89  74  60 SE8       30.03F HX  98
PONCA CITY     SUNNY     89  69  51 SE10      30.03F HX  93
BARTLESVILLE   PTSUNNY   88  70  55 SE7G17    30.04F HX  93
MUSKOGEE       MOSUNNY   84  72  67 SE7       30.06F
$$

OKZ032-040>043-046>053-073>077-242100-
SOUTH CENTRAL/SOUTHEAST OKLAHOMA

CITY           SKY/WX    TMP DP  RH WIND       PRES   REMARKS
ARDMORE/DWNTWN SUNNY     90  66  45 E6        30.02F HX  92
MCALESTER      SUNNY     89  68  49 VRB5      30.04F HX  93
$$



USA.gov is the U.S. government's official web portal to all federal, state and local government web resources and services.